Regional Weather Roundup
Issued by NWS

Home | Current Version | Previous Version | Graphics & Text | Print | Product List | Glossary On
Versions: 1 2 3 4 5 6 7 8 9 10 11 12 13 14 15 16 17 18 19 20 21 22 23 24 25 26 27 28 29 30 31 32 33 34 35 36 37 38 39 40 41 42 43 44 45 46 47 48 49 50
113
ASUS44 KJAN 271303
RWRMS

MISSISSIPPI HOURLY WEATHER ROUNDUP
NATIONAL WEATHER SERVICE JACKSON MS
700 AM CST FRI FEB 27 2015

NOTE: "FAIR: INDICATES FEW OR NO CLOUDS BELOW 12,000 FEET WITH NO
SIGNIFICANT WEATHER AND/OR OBSTRUCTIONS TO VISIBILITY.

MSZ001>002-007>008-010>013-018>021-025>028-034>036-271400-
NORTHWEST MISSISSIPPI

CITY           SKY/WX    TMP DP  RH WIND       PRES   REMARKS
CLARKSDALE     FAIR      23  16  74 N15       30.54R WCI  10
CLEVELAND      FAIR      25  18  76 NE17      30.50S WCI  11
GREENWOOD        N/A    N/A N/A N/A MISG      30.50R
GREENVILLE     CLOUDY    27  18  69 NE21      30.48S WCI  13
OLIVE BRANCH   PTCLDY    19  14  79 N10       30.54R WCI   8
OXFORD         FAIR      19  14  79 N5        30.52R WCI  13
TUNICA         SUNNY     23  18  80 N15       30.55R WCI  10
$$

MSZ003>006-009-014>017-022>024-029>033-037>039-271400-
NORTHEAST MISSISSIPPI

CITY           SKY/WX    TMP DP  RH WIND       PRES   REMARKS
COLUMBUS AFB   CLOUDY    29  18  63 N10       30.47R WCI  20
CORINTH        CLOUDY    25  16  68 NE14G21   30.51R WCI  13
GOLDN TRIANGLE CLOUDY    30  21  69 N7        30.45R WCI  23
STARKVILLE     CLOUDY    30  23  74 N7        30.47R WCI  23
TUPELO         CLOUDY    26  17  68 NE13      30.50R WCI  15
$$

MSZ040-058-271400-
CENTRAL MISSISSIPPI

CITY           SKY/WX    TMP DP  RH WIND       PRES   REMARKS
JACKSON INTL   CLOUDY    31  23  72 NE14      30.43R WCI  21
JACKSON HAWKNS CLOUDY    31  23  72 VRB7      30.43S WCI  24
MERIDIAN KEY   CLOUDY    30  23  75 NE14      30.44R WCI  19
MERIDIAN NAS   CLOUDY    31  24  75 N8        30.45R WCI  23
VICKSBURG      CLOUDY    30  22  72 NE12      30.47R WCI  20
$$

MSZ059>079-271400-
SOUTH MISSISSIPPI

CITY           SKY/WX    TMP DP  RH WIND       PRES   REMARKS
BROOKHAVEN     CLOUDY    32  30  93 N7        30.41R WCI  26
HATTIESBURG    CLOUDY    35  30  82 N6        30.42R WCI  30
MCCOMB         CLOUDY    33  27  78 NE7       30.39S WCI  27
NATCHEZ        CLOUDY    30  23  74 NE14G21   30.41S WCI  20
PINE BELT      CLOUDY    34  27  75 N12       30.41R WCI  25
$$

MSZ080>082-271400-
COASTAL MISSISSIPPI

CITY           SKY/WX    TMP DP  RH WIND       PRES   REMARKS
BAY ST LOUIS   CLEAR     32  27  80 N7        30.40  WCI  26
BILOXI         CLEAR     33  30  88 NE12      30.38R WCI  24
PASCAGOULA     CLEAR     32  29  88 N10       30.39R WCI  24
GULFPORT       CLEAR     32  28  85 N9        30.39R WCI  24
$$



USA.gov is the U.S. government's official web portal to all federal, state and local government web resources and services.